sat.trackr.live / text

‹ back to catalog

STARLINK-35470

NORAD 66430 · 2025-259J

PAYLOAD ACTIVE UNKNOWN

§ Identity

Operator
Country
US
Launch date
2025-11-11
Launch site
AFETR
Launch vehicle
Mass (kg)
RCS (m²)

Purposes: comms

External: N2YO · Heavens-Above · Gunter

§ Orbital elements

Epoch: 2026-09-20T16:09:17.048736Z

Period
94.27 min
Inclination
42.9983°
Eccentricity
0.0001580
Mean motion
15.27593673 rev/d
Perigee alt
481.9 km
Apogee alt
484.1 km
Semi-major
6,861.1 km
B*
5.1054e-4
RAAN
252.9934°
Arg perigee
271.8757°
Mean anomaly
88.1913°
Rev number
4,931

§ Raw data

STARLINK-354701 66430U 25259J   26263.67311399  .00013819  00000+0  51054-3 0  99992 66430  42.9983 252.9934 0001580 271.8757  88.1913 15.27593673 49316

JSON: /api/v1/satellites/66430 · /tle

For live sub-satellite position, see the globe view (requires WebGL).

§ Visibility from observer

Set your observer location to see the next 7 days of passes ≥ 10°. The values pass through the URL so the page stays shareable.

No JS? Fill the form by hand. The geolocation button needs JavaScript.